Home   Weather   Santander   Past weeks

Flag for Spain Past Weather in Santander, Spain — Yesterday and Last 2 Weeks

Now
66 °F

Light rain. Partly cloudy.


Feels Like: 66 °F
Forecast: 63 / 74 °F
Wind: 1 mph from North

Location: Santander / Parayas

Current Time: Sep 28, 2016 at 5:28:19 AM

Latest Report: Sep 28, 2016 at 5:00 AM


Visibility: 2 mi

Pressure: 30.39 "Hg

Humidity: 94%

Dew Point: 64 °F

Location of SantanderLocation

Past Weather in Santander — Graph

°F

Santander Temperature Yesterday

Maximum temperature yesterday: 70 °F (at 12:00 PM)
Minimum temperature yesterday: 63 °F (at 12:00 AM)
Average temperature yesterday: 66 °F

High & Low Weather Summary for the Past Weeks

 TemperatureHumidityPressure
High75 °F (Sep 13, 12:00 PM)100% (Sep 13, 8:30 AM)30.42 "Hg (Sep 13, 8:30 AM)
Low54 °F (Sep 21, 7:00 AM)41% (Sep 14, 1:30 PM)29.71 "Hg (Sep 13, 10:00 AM)
Average64 °F80%30.11 "Hg
* Reported Sep 13 4:00 AM — Sep 28 4:00 AM, Santander, Weather by CustomWeather, © 2016

Note: Actual official high and low records may vary slightly from our data, if they occured in-between our weather recording intervals... More about our weather records

Advertising

Santander Weather History for the Previous 24 Hours

Scroll right to see more
 ConditionsComfort  
Time TempWeatherWind HumidityBarometerVisibility
4:00 AM
Wed, Sep 28
66 °FFog.1 mph94%30.39 "Hg3 mi
3:30 AM66 °FFog.1 mph94%30.39 "Hg3 mi
3:00 AM66 °FPartly cloudy.1 mph94%30.39 "Hg4 mi
2:00 AM66 °FPassing clouds.1 mph94%30.39 "Hg4 mi
1:30 AM66 °FOvercast.1 mph94%30.39 "Hg5 mi
1:00 AM66 °FPassing clouds.1 mph94%30.39 "Hg6 mi
12:30 AM66 °FLight rain. Partly cloudy.1 mph94%30.39 "Hg4 mi
12:00 AM66 °FLight rain. Partly cloudy.No wind94%30.39 "Hg2 mi
11:30 PM
Tue, Sep 27
66 °FLight rain. Mostly cloudy.No wind94%30.42 "Hg3 mi
11:00 PM66 °FPassing clouds.No wind94%30.39 "Hg4 mi
10:30 PM66 °FPassing clouds.No wind100%30.39 "Hg4 mi
10:00 PM66 °FPassing clouds.No wind94%30.39 "Hg6 mi
9:30 PM66 °FPassing clouds.2 mph94%30.39 "Hg6 mi
9:00 PM66 °FPartly cloudy.1 mph100%30.39 "Hg6 mi
8:30 PM68 °FPartly cloudy.6 mph88%30.39 "Hg4 mi
8:00 PM68 °FBroken clouds.7 mph88%30.39 "HgN/A
7:30 PM68 °FBroken clouds.7 mph88%30.39 "HgN/A
7:00 PM68 °FBroken clouds.10 mph88%30.39 "HgN/A
6:30 PM68 °FBroken clouds.10 mph88%30.36 "HgN/A
6:00 PM68 °FBroken clouds.13 mph88%30.36 "HgN/A
5:30 PM68 °FBroken clouds.12 mph88%30.36 "HgN/A
5:00 PM70 °FScattered clouds.15 mph83%30.36 "HgN/A
4:30 PM70 °FBroken clouds.15 mph83%30.36 "HgN/A
4:00 PM70 °FBroken clouds.18 mph83%30.36 "HgN/A
3:30 PM70 °FBroken clouds.16 mph83%30.36 "HgN/A
3:00 PM68 °FBroken clouds.16 mph88%30.36 "HgN/A
2:30 PM68 °FBroken clouds.16 mph88%30.36 "HgN/A
2:00 PM70 °FBroken clouds.12 mph83%30.36 "HgN/A
1:30 PM68 °FBroken clouds.10 mph88%30.36 "Hg4 mi
1:00 PM68 °FDrizzle. Broken clouds.5 mph83%30.36 "Hg4 mi
12:30 PM68 °FDrizzle. Fog.13 mph83%30.36 "Hg2 mi
12:00 PM70 °FBroken clouds.3 mph73%30.36 "Hg6 mi
11:30 AM68 °FDrizzle. Broken clouds.7 mph78%30.36 "Hg6 mi
11:00 AM68 °FDrizzle. Broken clouds.3 mph73%30.33 "HgN/A
10:30 AM68 °FBroken clouds.5 mph69%30.33 "HgN/A
10:00 AM66 °FBroken clouds.5 mph73%30.33 "HgN/A
9:30 AM66 °FPartly sunny.6 mph73%30.30 "HgN/A
9:00 AM66 °FPartly sunny.6 mph73%30.30 "HgN/A
8:30 AM66 °FPartly sunny.6 mph68%30.30 "HgN/A
8:00 AM66 °FPartly cloudy.7 mph68%30.30 "HgN/A
7:30 AM64 °FPartly cloudy.3 mph73%30.30 "HgN/A
7:00 AM64 °FPassing clouds.2 mph73%30.27 "HgN/A
6:30 AM64 °FPassing clouds.2 mph73%30.27 "HgN/A
6:00 AM64 °FPassing clouds.6 mph73%30.27 "HgN/A
5:30 AM64 °FPassing clouds.1 mph68%30.27 "HgN/A
5:00 AM63 °FOvercast.No wind73%30.27 "Hg5 mi
Weather by CustomWeather, © 2016

See weather overviewHow to use our weather pages